Location: Krasnoyarskiy Pitomnik
(51.1333°N, 71.6167°E)
Time: 20:21:50
(UTC+00:00)

Envisat - Pass Details

Date: 04 March 2024
Orbit: 762 x 764 km, 98.3° (Epoch: 13 April)

Event Time Altitude Azimuth Distance (km) Brightness Sun altitude
Rises 23:28:13 0° 10° (N) 3,243 6.7 -22.7°
Reaches altitude 10° 23:30:35 10° 6° (N) 2,312 5.8 -22.3°
Maximum altitude 23:35:28 49° 292° (WNW) 984 3.2 -21.6°
Enters shadow 23:35:57 47° 273° (W) 1,006 3.2 -21.5°
